Location: Gloden
(48.4833°N, 15.3167°E)
Time: 13:27:24
(UTC+00:00)

COSMOS 2406 - Pass Details

Date: 15 December 2019
Orbit: 844 x 863 km, 71.0° (Epoch: 23 January)

Event Time Altitude Azimuth Distance (km) Brightness Sun altitude
Exits shadow 04:18:05 15° 349° (NNW) 2,167 5.1 -22.9°
Maximum altitude 04:22:22 37° 51° (NE) 1,298 4.5 -22.2°
Drops below altitude 10° 04:27:36 10° 118° (ESE) 2,465 6.7 -21.4°
Sets 04:30:13 0° 127° (SE) 3,395 7.5 -21.0°
